This is the latest recevied weather packets stored in our database for station/object KB1YYC. If no packets are shown the sender has not sent any weather packets the latest 10 day(s).
| Time | Temp. | Humidity | Pressure | Rain* | Wind** | Luminosity | Snow |
|---|---|---|---|---|---|---|---|
| 1778021836 | 21.11° C | 59% | 1006.7 hPa | 0 mm | - | 1 W/m² | - |
| 1778021534 | 21.11° C | 58% | 1006.5 hPa | 0 mm | - | 2 W/m² | - |
| 1778021229 | 21.11° C | 57% | 1006.5 hPa | 0 mm | - | 2 W/m² | - |
| 1778020927 | 21.11° C | 55% | 1006.6 hPa | 0 mm | - | 2 W/m² | - |
| 1778020624 | 20.56° C | 56% | 1006.4 hPa | 0 mm | - | 2 W/m² | - |
| 1778020320 | 20.56° C | 56% | 1005 hPa | 0 mm | - | 3 W/m² | - |
| 1778020016 | 21.11° C | 55% | 1004.6 hPa | 0 mm | - | 12 W/m² | - |
| 1778019712 | 21.11° C | 55% | 1004.4 hPa | 0 mm | - | 43 W/m² | - |
| 1778019410 | 21.11° C | 55% | 1004.4 hPa | 0 mm | - | 72 W/m² | - |
| 1778019106 | 21.11° C | 54% | 1004.3 hPa | 0 mm | - | 68 W/m² | - |
| 1778018804 | 21.11° C | 54% | 1004.2 hPa | 0 mm | - | 70 W/m² | - |
| 1778018501 | 21.11° C | 54% | 1004.2 hPa | 0 mm | - | 72 W/m² | - |
| 1778018198 | 21.67° C | 54% | 1004.1 hPa | 0 mm | - | 67 W/m² | - |
| 1778017897 | 21.67° C | 53% | 1004 hPa | 0 mm | - | 63 W/m² | - |
| 1778017594 | 22.22° C | 52% | 1004.1 hPa | 0 mm | - | 84 W/m² | - |
| 1778017291 | 22.22° C | 51% | 1004 hPa | 0 mm | - | 70 W/m² | - |
| 1778016989 | 22.78° C | 51% | 1003.8 hPa | 0 mm | - | 89 W/m² | - |
| 1778016685 | 22.78° C | 50% | 1003.9 hPa | 0 mm | - | 76 W/m² | - |
| 1778016381 | 22.78° C | 50% | 1004 hPa | 0 mm | - | 75 W/m² | - |
| 1778016079 | 23.33° C | 49% | 1003.7 hPa | 0 mm | - | 95 W/m² | - |
| 1778015776 | 23.33° C | 49% | 1003.7 hPa | 0 mm | - | 92 W/m² | - |
| 1778015473 | 23.89° C | 49% | 1003.9 hPa | 0 mm | - | 102 W/m² | - |
| 1778015169 | 23.89° C | 48% | 1003.5 hPa | 0 mm | - | 141 W/m² | - |
| 1778014867 | 23.89° C | 48% | 1003.5 hPa | 0 mm | - | 132 W/m² | - |
| 1778014564 | 23.89° C | 48% | 1003.3 hPa | 0 mm | - | 131 W/m² | - |
* Rain latest hour (hover to see other rain measurements)
** Current wind speed in m/s (hover to see current wind gust speed)